Weather History for Viciebsk, Belarus

Change the Weather History Date:

Tuesday, February 12, 2013

  Actual Average Record
Temperature  
Mean Temperature 32 °F -  
Max Temperature 35 °F 30 °F - ()
Min Temperature 29 °F 17 °F - ()
Degree Days  
Heating Degree Days 33    
Moisture  
Dew Point 31 °F    
Average Humidity 86    
Maximum Humidity 93    
Minimum Humidity 77    
Precipitation  
Precipitation 0.00 in 0.04 in - ()
Sea Level Pressure  
Sea Level Pressure 30.13 in    
Wind  
Wind Speed 5 mph ()    
Max Wind Speed 9 mph    
Max Gust Speed 16 mph    
Visibility 4.6 miles    
Events Snow    
T = Trace of Precipitation, MM = Missing Value Source: Averaged Metar Reports

Daily Weather History Graph

Daily Weather History Graph

Search for Another Location

Airport:

Trip Planner

Search our weather history database for the weather conditions in past years. The results will help you decide how hot, cold, wet, or windy it might be!

Date:

Astronomy

Feb. 12, 2013 Rise Set
Actual Time 8:28 AM FET 5:59 PM FET
Civil Twilight 7:50 AM FET 6:37 PM FET
Nautical Twilight 7:07 AM FET 7:20 PM FET
Astronomical Twilight 6:25 AM FET 8:02 PM FET
Moon 8:43 AM FET (2/12) 9:16 PM FET (2/12)
Length of Visible Light 10h 47m
Length of Day
9h 30m
Waxing Crescent, 5% of the Moon is Illuminated
Feb 12
Waxing Crescent
Feb 17
First Quarter
Feb 25
Full
Mar 5
Last Quarter
Mar 11
New

Hourly Weather History & Observations

Time (FET) Temp. Windchill Dew Point Humidity Pressure Visibility Wind Dir Wind Speed Gust Speed Precip Events Conditions
12:00 AM 30 °F - 26 °F 78% 30.15 in 2 mi NE 4.5 mph - - Snow Snow
3:00 AM 31 °F - 30 °F 93% 30.13 in 1 mi ENE 6.7 mph - - Snow Snow
6:00 AM 35 °F - 31 °F 78% 30.12 in 6 mi NE 2.2 mph - -   Partly Cloudy
8:00 AM 33.8 °F 26.5 °F 32.0 °F 93% 30.06 in - ESE 8.9 mph 15.7 mph N/A   Overcast
9:00 AM 35 °F - 31 °F 78% 30.14 in 6 mi NE 2.2 mph - -   Partly Cloudy
9:00 AM 33.8 °F 26.5 °F 30.2 °F 87% 30.06 in - ESE 8.9 mph 15.7 mph N/A   Overcast
10:00 AM 33.8 °F 26.5 °F 32.0 °F 93% 30.09 in - ESE 8.9 mph 15.7 mph N/A   Overcast
11:00 AM 33.8 °F 26.5 °F 32.0 °F 93% 30.09 in - ESE 8.9 mph 15.7 mph N/A   Overcast
12:00 PM 35 °F - 30 °F 77% 30.16 in 6 mi ENE 2.2 mph - -   Mostly Cloudy
12:00 PM 33.8 °F 26.5 °F 30.2 °F 87% 30.09 in - East 8.9 mph 15.7 mph N/A   Overcast
1:00 PM 33.8 °F 27.9 °F 30.2 °F 87% 30.12 in - ESE 6.7 mph 13.4 mph N/A   Overcast
1:40 PM 33.8 °F 26.5 °F 30.2 °F 87% 30.12 in - ESE 8.9 mph 15.7 mph N/A   Overcast
1:47 PM 33.8 °F 26.5 °F 30.2 °F 87% 30.12 in - ESE 8.9 mph 15.7 mph N/A   Overcast
2:00 PM 33.8 °F 26.5 °F 32.0 °F 93% 30.12 in - East 8.9 mph 15.7 mph N/A   Overcast
3:00 PM 35 °F - 31 °F 78% 30.18 in 6 mi ESE 2.2 mph - -   Overcast
3:00 PM 33.8 °F 27.9 °F 32.0 °F 93% 30.12 in - East 6.7 mph 13.4 mph N/A   Overcast
4:00 PM 33.8 °F 27.9 °F 30.2 °F 87% 30.12 in - ESE 6.7 mph 13.4 mph N/A   Overcast
6:00 PM 35 °F - 30 °F 77% 30.22 in 6 mi Calm Calm - -   Overcast
9:00 PM 34 °F - 31 °F 83% 30.26 in 4 mi Calm Calm - - Snow Light Snow